﻿測定場所 (Monitoring sites),日付 (Measurement date),時間 (Measurement time),線量率 最大値 (max) μGy/h,線量率 最小値 (min) μGy/h,線量率 平均値 (average) μGy/h,
大田 (Ota),2021-02-14,23:01～24:00,0.0357,0.0310,0.0333,
大田 (Ota),2021-02-14,22:01～23:00,0.0357,0.0301,0.0332,
大田 (Ota),2021-02-14,21:01～22:00,0.0347,0.0308,0.0331,
大田 (Ota),2021-02-14,20:01～21:00,0.0358,0.0311,0.0329,
大田 (Ota),2021-02-14,19:01～20:00,0.0347,0.0312,0.0330,
大田 (Ota),2021-02-14,18:01～19:00,0.0359,0.0311,0.0332,
大田 (Ota),2021-02-14,17:01～18:00,0.0352,0.0313,0.0333,
大田 (Ota),2021-02-14,16:01～17:00,0.0347,0.0307,0.0331,
大田 (Ota),2021-02-14,15:01～16:00,0.0350,0.0311,0.0329,
大田 (Ota),2021-02-14,14:01～15:00,0.0356,0.0313,0.0333,
大田 (Ota),2021-02-14,13:01～14:00,0.0360,0.0314,0.0338,
大田 (Ota),2021-02-14,12:01～13:00,0.0367,0.0320,0.0344,
大田 (Ota),2021-02-14,11:01～12:00,0.0363,0.0328,0.0345,
大田 (Ota),2021-02-14,10:01～11:00,0.0367,0.0333,0.0350,
大田 (Ota),2021-02-14,09:01～10:00,0.0363,0.0329,0.0346,
大田 (Ota),2021-02-14,08:01～09:00,0.0369,0.0324,0.0346,
大田 (Ota),2021-02-14,07:01～08:00,0.0367,0.0328,0.0347,
大田 (Ota),2021-02-14,06:01～07:00,0.0368,0.0314,0.0342,
大田 (Ota),2021-02-14,05:01～06:00,0.0367,0.0322,0.0343,
大田 (Ota),2021-02-14,04:01～05:00,0.0361,0.0324,0.0343,
大田 (Ota),2021-02-14,03:01～04:00,0.0355,0.0316,0.0336,
大田 (Ota),2021-02-14,02:01～03:00,0.0361,0.0309,0.0336,
大田 (Ota),2021-02-14,01:01～02:00,0.0350,0.0313,0.0333,
大田 (Ota),2021-02-14,00:01～01:00,0.0354,0.0313,0.0331,
大田 (Ota),2021-02-13,23:01～24:00,0.0353,0.0310,0.0330,
大田 (Ota),2021-02-13,22:01～23:00,0.0346,0.0309,0.0330,
大田 (Ota),2021-02-13,21:01～22:00,0.0355,0.0304,0.0329,
大田 (Ota),2021-02-13,20:01～21:00,0.0348,0.0311,0.0331,
大田 (Ota),2021-02-13,19:01～20:00,0.0355,0.0306,0.0331,
大田 (Ota),2021-02-13,18:01～19:00,0.0365,0.0306,0.0333,
大田 (Ota),2021-02-13,17:01～18:00,0.0348,0.0314,0.0331,
大田 (Ota),2021-02-13,16:01～17:00,0.0352,0.0315,0.0332,
大田 (Ota),2021-02-13,15:01～16:00,0.0355,0.0314,0.0333,
大田 (Ota),2021-02-13,14:01～15:00,0.0361,0.0316,0.0333,
大田 (Ota),2021-02-13,13:01～14:00,0.0357,0.0312,0.0336,
大田 (Ota),2021-02-13,12:01～13:00,0.0362,0.0321,0.0340,
大田 (Ota),2021-02-13,11:01～12:00,0.0355,0.0310,0.0337,
大田 (Ota),2021-02-13,10:01～11:00,0.0361,0.0323,0.0341,
大田 (Ota),2021-02-13,09:01～10:00,0.0366,0.0329,0.0344,
大田 (Ota),2021-02-13,08:01～09:00,0.0363,0.0326,0.0343,
大田 (Ota),2021-02-13,07:01～08:00,0.0360,0.0319,0.0341,
大田 (Ota),2021-02-13,06:01～07:00,0.0363,0.0322,0.0342,
大田 (Ota),2021-02-13,05:01～06:00,0.0356,0.0323,0.0338,
大田 (Ota),2021-02-13,04:01～05:00,0.0353,0.0313,0.0335,
大田 (Ota),2021-02-13,03:01～04:00,0.0360,0.0314,0.0335,
大田 (Ota),2021-02-13,02:01～03:00,0.0351,0.0312,0.0334,
大田 (Ota),2021-02-13,01:01～02:00,0.0352,0.0310,0.0336,
大田 (Ota),2021-02-13,00:01～01:00,0.0347,0.0310,0.0331,
大田 (Ota),2021-02-12,23:01～24:00,0.0360,0.0302,0.0332,
大田 (Ota),2021-02-12,22:01～23:00,0.0350,0.0309,0.0332,
大田 (Ota),2021-02-12,21:01～22:00,0.0360,0.0313,0.0334,
大田 (Ota),2021-02-12,20:01～21:00,0.0356,0.0316,0.0335,
大田 (Ota),2021-02-12,19:01～20:00,0.0353,0.0320,0.0336,
大田 (Ota),2021-02-12,18:01～19:00,0.0369,0.0309,0.0332,
大田 (Ota),2021-02-12,17:01～18:00,0.0365,0.0320,0.0337,
大田 (Ota),2021-02-12,16:01～17:00,0.0354,0.0319,0.0336,
大田 (Ota),2021-02-12,15:01～16:00,0.0358,0.0315,0.0336,
大田 (Ota),2021-02-12,14:01～15:00,0.0364,0.0321,0.0339,
大田 (Ota),2021-02-12,13:01～14:00,0.0368,0.0309,0.0341,
大田 (Ota),2021-02-12,12:01～13:00,0.0365,0.0322,0.0343,
大田 (Ota),2021-02-12,11:01～12:00,0.0374,0.0321,0.0344,
大田 (Ota),2021-02-12,10:01～11:00,0.0362,0.0317,0.0342,
大田 (Ota),2021-02-12,09:01～10:00,0.0357,0.0319,0.0339,
大田 (Ota),2021-02-12,08:01～09:00,0.0368,0.0320,0.0343,
大田 (Ota),2021-02-12,07:01～08:00,0.0357,0.0321,0.0339,
大田 (Ota),2021-02-12,06:01～07:00,0.0356,0.0315,0.0337,
大田 (Ota),2021-02-12,05:01～06:00,0.0361,0.0322,0.0338,
大田 (Ota),2021-02-12,04:01～05:00,0.0359,0.0317,0.0337,
大田 (Ota),2021-02-12,03:01～04:00,0.0365,0.0320,0.0338,
大田 (Ota),2021-02-12,02:01～03:00,0.0360,0.0315,0.0338,
大田 (Ota),2021-02-12,01:01～02:00,0.0360,0.0315,0.0335,
大田 (Ota),2021-02-12,00:01～01:00,0.0361,0.0321,0.0336,
大田 (Ota),2021-02-11,23:01～24:00,0.0365,0.0318,0.0335,
大田 (Ota),2021-02-11,22:01～23:00,0.0359,0.0319,0.0336,
大田 (Ota),2021-02-11,21:01～22:00,0.0359,0.0312,0.0335,
大田 (Ota),2021-02-11,20:01～21:00,0.0373,0.0308,0.0338,
大田 (Ota),2021-02-11,19:01～20:00,0.0359,0.0317,0.0336,
大田 (Ota),2021-02-11,18:01～19:00,0.0350,0.0318,0.0335,
大田 (Ota),2021-02-11,17:01～18:00,0.0354,0.0316,0.0333,
大田 (Ota),2021-02-11,16:01～17:00,0.0358,0.0320,0.0337,
大田 (Ota),2021-02-11,15:01～16:00,0.0353,0.0322,0.0338,
大田 (Ota),2021-02-11,14:01～15:00,0.0363,0.0318,0.0339,
大田 (Ota),2021-02-11,13:01～14:00,0.0365,0.0320,0.0341,
大田 (Ota),2021-02-11,12:01～13:00,0.0360,0.0312,0.0338,
大田 (Ota),2021-02-11,11:01～12:00,0.0364,0.0319,0.0339,
大田 (Ota),2021-02-11,10:01～11:00,0.0363,0.0324,0.0342,
大田 (Ota),2021-02-11,09:01～10:00,0.0358,0.0319,0.0340,
大田 (Ota),2021-02-11,08:01～09:00,0.0357,0.0317,0.0337,
大田 (Ota),2021-02-11,07:01～08:00,0.0356,0.0311,0.0335,
大田 (Ota),2021-02-11,06:01～07:00,0.0350,0.0318,0.0334,
大田 (Ota),2021-02-11,05:01～06:00,0.0360,0.0315,0.0338,
大田 (Ota),2021-02-11,04:01～05:00,0.0366,0.0313,0.0339,
大田 (Ota),2021-02-11,03:01～04:00,0.0358,0.0311,0.0334,
大田 (Ota),2021-02-11,02:01～03:00,0.0355,0.0319,0.0338,
大田 (Ota),2021-02-11,01:01～02:00,0.0358,0.0321,0.0340,
大田 (Ota),2021-02-11,00:01～01:00,0.0361,0.0317,0.0339,
大田 (Ota),2021-02-10,23:01～24:00,0.0347,0.0305,0.0330,
大田 (Ota),2021-02-10,22:01～23:00,0.0351,0.0300,0.0332,
大田 (Ota),2021-02-10,21:01～22:00,0.0356,0.0299,0.0332,
大田 (Ota),2021-02-10,20:01～21:00,0.0349,0.0317,0.0333,
大田 (Ota),2021-02-10,19:01～20:00,0.0352,0.0312,0.0332,
大田 (Ota),2021-02-10,18:01～19:00,0.0358,0.0314,0.0333,
大田 (Ota),2021-02-10,17:01～18:00,0.0357,0.0315,0.0331,
大田 (Ota),2021-02-10,16:01～17:00,0.0356,0.0317,0.0336,
大田 (Ota),2021-02-10,15:01～16:00,0.0363,0.0301,0.0334,
大田 (Ota),2021-02-10,14:01～15:00,0.0353,0.0314,0.0334,
大田 (Ota),2021-02-10,13:01～14:00,0.0362,0.0321,0.0337,
大田 (Ota),2021-02-10,12:01～13:00,0.0361,0.0323,0.0341,
大田 (Ota),2021-02-10,11:01～12:00,0.0366,0.0318,0.0343,
大田 (Ota),2021-02-10,10:01～11:00,0.0370,0.0319,0.0345,
大田 (Ota),2021-02-10,09:01～10:00,0.0367,0.0324,0.0344,
大田 (Ota),2021-02-10,08:01～09:00,0.0364,0.0319,0.0342,
大田 (Ota),2021-02-10,07:01～08:00,0.0362,0.0324,0.0341,
大田 (Ota),2021-02-10,06:01～07:00,0.0355,0.0315,0.0338,
大田 (Ota),2021-02-10,05:01～06:00,0.0353,0.0315,0.0335,
大田 (Ota),2021-02-10,04:01～05:00,0.0349,0.0308,0.0334,
大田 (Ota),2021-02-10,03:01～04:00,0.0352,0.0299,0.0333,
大田 (Ota),2021-02-10,02:01～03:00,0.0348,0.0307,0.0333,
大田 (Ota),2021-02-10,01:01～02:00,0.0356,0.0310,0.0333,
大田 (Ota),2021-02-10,00:01～01:00,0.0356,0.0318,0.0333,
大田 (Ota),2021-02-09,23:01～24:00,0.0349,0.0316,0.0332,
大田 (Ota),2021-02-09,22:01～23:00,0.0355,0.0316,0.0333,
大田 (Ota),2021-02-09,21:01～22:00,0.0345,0.0315,0.0331,
大田 (Ota),2021-02-09,20:01～21:00,0.0352,0.0312,0.0331,
大田 (Ota),2021-02-09,19:01～20:00,0.0354,0.0312,0.0330,
大田 (Ota),2021-02-09,18:01～19:00,0.0348,0.0312,0.0331,
大田 (Ota),2021-02-09,17:01～18:00,0.0358,0.0312,0.0334,
大田 (Ota),2021-02-09,16:01～17:00,0.0355,0.0307,0.0331,
大田 (Ota),2021-02-09,15:01～16:00,0.0348,0.0315,0.0331,
大田 (Ota),2021-02-09,14:01～15:00,0.0354,0.0316,0.0332,
大田 (Ota),2021-02-09,13:01～14:00,0.0351,0.0311,0.0333,
大田 (Ota),2021-02-09,12:01～13:00,0.0357,0.0315,0.0337,
大田 (Ota),2021-02-09,11:01～12:00,0.0355,0.0321,0.0338,
大田 (Ota),2021-02-09,10:01～11:00,0.0359,0.0318,0.0335,
大田 (Ota),2021-02-09,09:01～10:00,0.0359,0.0316,0.0334,
大田 (Ota),2021-02-09,08:01～09:00,0.0358,0.0311,0.0331,
大田 (Ota),2021-02-09,07:01～08:00,0.0356,0.0310,0.0330,
大田 (Ota),2021-02-09,06:01～07:00,0.0351,0.0314,0.0332,
大田 (Ota),2021-02-09,05:01～06:00,0.0351,0.0316,0.0333,
大田 (Ota),2021-02-09,04:01～05:00,0.0348,0.0311,0.0330,
大田 (Ota),2021-02-09,03:01～04:00,0.0355,0.0314,0.0332,
大田 (Ota),2021-02-09,02:01～03:00,0.0351,0.0317,0.0334,
大田 (Ota),2021-02-09,01:01～02:00,0.0356,0.0316,0.0334,
大田 (Ota),2021-02-09,00:01～01:00,0.0363,0.0315,0.0336,
大田 (Ota),2021-02-08,23:01～24:00,0.0362,0.0317,0.0339,
大田 (Ota),2021-02-08,22:01～23:00,0.0357,0.0313,0.0337,
大田 (Ota),2021-02-08,21:01～22:00,0.0358,0.0318,0.0337,
大田 (Ota),2021-02-08,20:01～21:00,0.0358,0.0315,0.0338,
大田 (Ota),2021-02-08,19:01～20:00,0.0355,0.0319,0.0337,
大田 (Ota),2021-02-08,18:01～19:00,0.0354,0.0310,0.0335,
大田 (Ota),2021-02-08,17:01～18:00,0.0360,0.0320,0.0335,
大田 (Ota),2021-02-08,16:01～17:00,0.0357,0.0313,0.0335,
大田 (Ota),2021-02-08,15:01～16:00,0.0359,0.0320,0.0338,
大田 (Ota),2021-02-08,14:01～15:00,0.0357,0.0320,0.0340,
大田 (Ota),2021-02-08,13:01～14:00,0.0367,0.0324,0.0341,
大田 (Ota),2021-02-08,12:01～13:00,0.0359,0.0318,0.0338,
大田 (Ota),2021-02-08,11:01～12:00,0.0363,0.0316,0.0337,
大田 (Ota),2021-02-08,10:01～11:00,0.0360,0.0316,0.0336,
大田 (Ota),2021-02-08,09:01～10:00,0.0357,0.0317,0.0339,
大田 (Ota),2021-02-08,08:01～09:00,0.0358,0.0311,0.0336,
大田 (Ota),2021-02-08,07:01～08:00,0.0354,0.0315,0.0334,
大田 (Ota),2021-02-08,06:01～07:00,0.0354,0.0313,0.0334,
大田 (Ota),2021-02-08,05:01～06:00,0.0361,0.0316,0.0338,
大田 (Ota),2021-02-08,04:01～05:00,0.0357,0.0315,0.0337,
大田 (Ota),2021-02-08,03:01～04:00,0.0361,0.0327,0.0342,
大田 (Ota),2021-02-08,02:01～03:00,0.0360,0.0314,0.0339,
大田 (Ota),2021-02-08,01:01～02:00,0.0370,0.0317,0.0341,
大田 (Ota),2021-02-08,00:01～01:00,0.0362,0.0322,0.0338,
